Location: Frizzleburg
(41.0764°N, 80.4548°W)
Time: 01:55:10
(UTC+00:00)

STARLINK-45 - Pass Details

Date: 17 November 2019
Orbit: 529 x 531 km, 53.0° (Epoch: 09 December)

Event Time Altitude Azimuth Distance (km) Brightness Sun altitude
Exits shadow 10:33:35 31° 229° (SW) 943 4.4 -18.4°
Maximum altitude 10:35:25 88° 144° (SE) 542 3.5 -18.1°
Drops below altitude 10° 10:39:32 10° 52° (NE) 1,816 6.8 -17.3°
Sets 10:41:48 0° 52° (NE) 2,725 7.8 -16.9°
